sat.trackr.live / text

‹ back to catalog

STARLINK-34884

NORAD 66287 · 2025-247Y

PAYLOAD ACTIVE UNKNOWN

§ Identity

Operator
Country
US
Launch date
2025-10-31
Launch site
AFWTR
Launch vehicle
Mass (kg)
RCS (m²)

Purposes: comms

External: N2YO · Heavens-Above · Gunter

§ Orbital elements

Epoch: 2026-09-20T13:36:39.556800Z

Period
93.85 min
Inclination
53.1608°
Eccentricity
0.0001110
Mean motion
15.34409102 rev/d
Perigee alt
461.9 km
Apogee alt
463.4 km
Semi-major
6,840.8 km
B*
5.4010e-4
RAAN
1.7660°
Arg perigee
85.2216°
Mean anomaly
274.8914°
Rev number
5,093

§ Raw data

STARLINK-348841 66287U 25247Y   26263.56712450  .00017921  00000+0  54010-3 0  99902 66287  53.1608   1.7660 0001110  85.2216 274.8914 15.34409102 50932

JSON: /api/v1/satellites/66287 · /tle

For live sub-satellite position, see the globe view (requires WebGL).

§ Visibility from observer

Set your observer location to see the next 7 days of passes ≥ 10°. The values pass through the URL so the page stays shareable.

No JS? Fill the form by hand. The geolocation button needs JavaScript.